SCP
-0 -0 -0 -0 -0 -0 -0 -0 -0 -0 -0 -0 -0 -0 -0 -0 -0 -0 -0 -0 -0 -0 -0 -0 -0 -0 -0 -0 -0 -0 -0 -0 -0 -0 -0 -0 -0 -0 -0 -0 -0 -0 -0
-0 -0 -0 -0 -0 -0 -0 -0 -0 -0 -0 -0 -0 -0 -0 -0 -0 -0 -0 -0 -0 -0 -0 -0 -0 -0 -0 -0 -0 -0 -0 -0 -0 -0 -0 -0 -0 -0 -0 -0 0 0 0
-0 -0 -0 -0 -0 -0 -0 -0 -0 -0 -0 -0 -0 -0 -0 -0 -0 -0 -0 -0 -0 -0 -0 -0 -0 -0 -0 -0 -0 -0 -0 -0 -0 -0 0 0 0 -0 0 0 0 0 0
-0 -0 -0 -0 -0 -0 -0 -0 -0 -0 -0 -0 -0 -0 -0 -0 -0 -0 -0 -0 -0 -0 -0 -0 -0 -0 -0 -0 -0 -0 -0 0 0 0 0 0 0 0 0 0 0 0 0
-0 0 0 -0 -0 -0 -0 -0 -0 -0 -0 -0 -0 -0 -0 -0 -0 -0 -0 -0 -0 -0 -0 -0 -0 -0 0 0 0 0 0 0 0 0 0 0 0 0 0 0 0 0 0
0 0 0 0 -0 -0 -0 -0 -0 -0 -0 -0 -0 -0 -0 -0 -0 0 -0 -0 0 -0 -0 0 0 0 0 0 0 0 0 0 0 0 0 0 0 0 0 0 0 0 0
0 0 0 0 0 0 0 0 0 -0 -0 -0 -0 0 0 -0 0 0 0 0 0 0 0 0 0 0 0 0 0 0 0 0 0 0 0 0 0 0 0 0 0 0 0
0 0 0 0 0 0 0 0 0 0 0 0 0 0 0 0 0 0 0 0 0 0 0 0 0 0 0 0 0 0 0 0 0 0 0 0 0 0 0 0 0 0 0
0 0 0 0 0 0 0 0 0 0 0 0 0 0 0 0 0 0 0 0 0 0 0 0 0 0 0 0 0 0 0 0 0 0 0 0 0 0 0 0 0 0 0
0 0 0 0 0 0 0 0 0 0 0 0 0 0 0 0 0 0 0 0 0 0 0 0 0 0 0 0 0 0 0 0 0 0 0 0 0 0 0 0 0 0 0
0 0 0 0 0 0 0 0 0 0 0 0 0 0 0 0 0 0 0 0 0 0 0 0 0 0 0 0 0 0 0 0 0 0 0 0 0 0 0 0 0 0 0
0 0 0 0 0 0 0 0 0 0 0 0 0 0 0 0 0 0 0 0 0 0 0 0 0 0 0 0 0 0 0 0 0 0 0 0 0 0 0 0 0 0 0
0 0 0 0 0 0 0 0 0 0 0 0 0 0 0 0 0 0 0 0 0 0 0 0 0 0 0 0 0 0 0 0 0 0 0 0 0 0 0 0 0 0 0
0 0 0 0 0 0 0 0 0 0 0 0 0 0 0 0 0 0 0 0 0 0 0 0 0 0 0 0 0 0 0 0 0 0 0 0 0 0 0 0 0 0 0
0 0 0 0 0 0 0 0 0 0 0 0 0 0 0 0 0 0 0 0 0 0 0 0 0 0 0 0 0 0 0 0 0 0 0 0 0 0 0 0 0 0 0
0 0 0 0 0 0 0 0 0 0 0 0 0 0 0 0 0 0 0 0 0 0 0 0 0 0 0 0 0 0 0 0 0 0 0 0 0 0 0 0 0 0 0
0 0 0 0 0 0 0 0 0 0 0 0 0 0 0 0 0 0 0 0 0 0 0 0 0 0 0 0 0 0 0 0 0 0 0 0 0 0 0 0 0 0 0
0 0 0 0 0 0 0 0 0 0 0 0 0 0 0 0 0 0 0 0 0 0 0 0 0 0 0 0 0 0 0 0 0 0 0 0 0 0 0 0 0 0 0
0 0 0 0 0 0 0 0 0 0 0 0 0 0 0 0 0 0 0 0 0 0 0 0 0 0 0 0 0 0 0 0 0 0 0 0 0 0 0 0 0 0 0
0 0 0 0 0 0 0 0 0 0 0 0 0 0 0 0 0 0 0 0 0 0 0 0 0 0 0 0 0 0 0 0 0 0 0 0 0 0 0 0 0 0 0
0 0 0 0 0 0 0 0 0 0 0 0 0 0 0 0 0 0 0 0 0 0 0 0 0 0 0 0 0 0 0 0 0 0 0 0 0 0 0 0 0 0 0
0 0 0 0 0 0 0 0 0 0 0 0 0 0 0 0 0 0 0 0 0 0 0 0 0 0 0 0 0 0 0 0 0 0 0 0 0 0 0 0 0 0 0
-0 0 0 -0 -0 -0 -0 0 0 0 0 0 0 0 0 0 0 0 0 0 0 0 0 0 0 0 0 0 0 0 0 0 0 0 0 0 0 0 0 0 0 0 0
-0 -0 -0 0 0 0 0 -0 -0 -0 0 0 0 0 0 0 0 0 0 0 0 0 0 0 0 0 0 0 0 0 0 0 0 0 0 0 0 0 0 0 0 0 0
-0 -0 -0 -0 0 0 0 0 -0 -0 0 0 0 0 0 0 0 0 0 0 0 0 0 0 0 0 0 0 0 0 0 0 0 0 0 0 0 0 0 0 0 0 0
-0 -0 -0 -0 -0 0 0 0 0 0 0 0 0 0 0 0 0 0 0 0 0 0 0 0 0 0 0 0 0 0 0 0 0 0 0 0 0 0 0 0 0 0 0
Wind_Speed_500mb
50 52 49 47 47 41 38 37 35 35 35 30 26 24 22 20 19 17 15 20 23 26 28 24 24 25 20 24 25 30 27 23 23 23 23 24 24 24 26 27 29 30 26
54 53 51 49 47 41 37 35 35 33 29 26 23 21 19 16 14 13 14 13 16 22 31 26 27 26 25 26 29 27 24 21 20 19 21 19 18 18 19 20 24 26 22
50 51 50 48 45 39 35 35 34 29 25 24 21 17 15 13 13 13 12 11 11 14 24 26 26 28 26 27 26 23 19 18 18 18 17 14 14 12 11 14 18 21 18
31 53 50 48 44 39 35 33 32 28 25 22 18 15 11 11 12 13 12 11 12 13 20 26 28 29 28 27 25 21 18 14 12 10 12 9 7 7 6 9 11 13 12
21 51 50 46 42 37 35 33 32 28 24 21 18 13 11 10 10 10 11 11 15 19 22 27 28 26 25 24 22 19 15 10 8 8 10 3 6 8 11 11 11 9 6
15 47 48 44 40 38 34 33 31 27 24 20 16 12 11 10 13 16 18 18 20 22 22 23 22 22 22 21 21 20 18 15 11 10 7 15 12 10 14 13 10 7 3
10 40 44 38 37 36 34 33 30 26 24 21 16 12 10 12 15 16 19 21 22 22 21 21 20 19 18 17 17 18 19 18 15 14 12 13 16 16 13 11 9 8 5
9 31 37 33 32 32 31 31 29 25 23 21 16 13 11 12 14 16 18 19 20 20 20 20 20 20 20 19 16 15 15 16 13 14 15 13 13 11 9 8 6 5 5
9 6 26 28 29 28 26 29 27 25 24 21 17 14 12 13 14 16 16 16 16 16 17 18 19 19 19 17 14 11 12 13 13 11 12 10 9 9 8 6 4 3 3
6 6 6 16 26 28 29 32 31 28 27 24 20 16 15 16 17 18 17 15 15 15 15 17 19 19 17 14 11 10 12 14 14 14 14 15 9 10 8 7 5 4 3
19 16 6 3 16 32 32 30 33 31 30 30 26 21 19 18 19 21 19 18 16 16 16 16 17 17 15 12 7 8 11 14 14 9 12 13 10 14 12 12 10 9 8
10 11 14 18 25 31 34 37 32 32 31 35 31 27 24 22 22 22 22 21 20 19 19 19 20 19 17 13 8 8 10 14 18 17 18 18 17 17 17 15 14 15 16
36 8 14 16 21 34 33 39 39 39 36 36 35 33 30 28 27 29 29 28 26 25 24 23 23 23 21 19 15 13 14 17 20 22 22 22 22 21 22 21 20 21 24
39 34 16 14 20 33 43 38 41 40 39 42 41 38 37 36 35 34 34 33 31 29 28 27 27 27 25 24 21 17 18 20 23 26 25 24 25 25 26 25 25 27 28
41 39 32 20 11 28 32 40 47 50 47 47 50 47 45 44 43 40 38 37 36 35 34 33 34 32 30 29 25 22 24 22 24 28 28 29 28 29 31 29 29 30 28
57 47 41 31 24 14 21 38 43 43 54 54 52 55 52 49 49 49 47 42 40 40 36 39 41 37 33 36 33 30 30 28 25 28 32 31 30 28 28 30 30 30 29
63 60 50 36 33 26 23 24 35 43 45 55 59 58 59 56 47 51 52 52 46 43 40 40 42 41 41 39 39 36 34 35 31 30 33 33 30 29 29 31 31 31 32
66 65 60 55 41 32 28 26 32 36 39 38 43 57 60 60 59 58 57 53 49 48 46 43 45 46 46 42 44 41 39 39 38 34 34 34 32 32 30 30 33 35 36
73 70 66 62 60 53 36 30 29 30 30 37 47 43 55 61 62 67 63 60 55 51 53 56 57 55 54 44 46 47 46 45 42 40 36 36 35 34 34 34 33 32 31
73 72 70 69 65 62 55 43 32 34 31 32 40 45 46 52 67 66 70 68 62 61 55 64 62 60 63 54 55 55 52 53 48 44 42 39 38 39 36 35 34 31 30
71 73 75 74 74 71 71 68 55 43 45 41 35 38 44 39 58 70 78 75 74 73 70 64 69 69 68 64 62 61 58 59 55 49 48 46 43 40 40 38 37 34 33
68 71 74 75 75 73 71 69 66 58 48 46 45 46 40 46 45 47 70 83 82 82 81 75 76 77 77 73 72 64 47 63 65 58 56 52 50 46 44 42 40 39 36
69 70 71 73 74 75 76 69 65 61 57 50 42 50 49 49 47 46 54 71 86 92 92 90 88 88 88 78 83 69 28 39 45 56 62 60 55 53 47 47 44 43 42
65 66 67 69 72 73 76 79 78 77 76 72 63 58 58 54 54 48 65 60 84 88 96 101 98 99 91 96 88 90 87 64 34 27 44 53 55 57 55 52 49 47 45
61 68 69 67 68 70 73 75 77 78 75 73 74 67 57 56 51 55 53 54 56 85 89 98 106 106 108 101 107 96 96 100 85 66 51 48 54 52 57 54 52 50 49
60 68 73 75 71 68 70 72 73 75 77 80 80 79 76 67 63 57 55 51 57 61 67 96 94 109 112 111 106 118 100 107 99 88 72 57 51 52 54 52 53 53 52
Wind_Direction_500mb
173 171 165 165 163 161 158 153 149 146 142 141 139 138 136 135 135 135 125 123 129 142 127 130 134 139 141 131 124 128 127 121 106 93 81 76 76 73 69 65 58 53 58
170 175 167 166 164 163 157 151 150 147 144 142 140 139 139 142 144 148 145 144 135 147 150 133 131 135 135 136 139 138 134 124 108 96 81 65 57 63 65 62 50 49 58
172 174 170 169 168 166 158 155 154 151 149 148 147 147 148 154 164 167 170 169 160 157 153 135 135 143 140 142 144 144 136 125 113 105 87 60 47 32 47 54 46 43 51
175 178 176 173 173 168 165 163 162 160 159 158 155 152 156 166 169 172 179 181 181 158 148 154 149 146 146 148 149 145 142 139 141 116 90 49 31 355 9 14 22 30 50
184 184 180 177 177 173 172 170 170 169 168 165 160 154 150 152 149 149 155 156 147 145 145 144 152 157 159 159 160 158 162 177 176 162 152 90 302 290 329 325 339 358 46
189 186 185 183 181 179 178 177 176 175 174 170 163 152 142 138 133 130 126 128 132 135 138 144 151 157 162 168 171 174 181 193 204 228 202 182 231 270 292 300 314 323 342
174 189 190 185 185 185 184 183 183 183 182 177 171 160 144 140 136 132 126 127 127 127 132 138 145 151 156 162 169 178 189 210 227 243 251 242 250 274 281 285 294 291 278
8 194 193 186 190 190 191 192 192 191 190 186 181 172 161 149 148 142 142 140 136 133 131 132 134 134 133 136 143 160 185 212 237 254 265 266 274 276 267 276 289 299 289
35 134 202 196 197 201 203 202 203 202 201 197 194 188 181 172 167 165 159 153 148 147 145 146 144 140 137 137 143 160 185 206 226 247 257 265 275 285 261 250 254 276 298
129 102 90 214 215 210 213 212 210 213 212 207 207 203 198 188 183 181 178 172 168 167 160 156 154 150 148 149 155 179 209 234 241 255 253 256 275 263 273 256 256 270 278
160 171 210 298 254 226 218 221 222 217 216 211 211 215 209 206 202 198 194 191 191 190 185 179 177 175 173 169 172 190 221 245 255 257 261 266 242 260 266 260 247 233 235
83 134 196 226 273 243 226 234 229 232 223 216 217 221 221 217 217 213 211 208 208 207 202 201 201 206 206 214 230 241 261 265 261 252 256 265 260 257 256 256 257 256 257
27 20 237 254 249 240 234 245 235 233 230 227 225 227 226 225 222 222 225 224 222 221 219 217 220 223 223 229 241 263 280 283 271 264 259 263 265 259 254 253 254 261 272
24 27 15 252 250 234 233 247 245 242 241 239 236 238 234 232 229 231 233 236 235 233 231 231 233 236 237 239 244 261 279 288 278 265 265 266 270 266 259 256 255 260 266
23 16 15 4 268 242 257 243 249 245 245 251 244 239 239 238 238 238 239 240 241 239 238 237 240 243 243 245 246 257 269 277 279 270 263 267 268 266 262 261 260 262 264
24 19 9 6 349 329 258 247 253 249 251 250 251 252 252 243 242 242 244 243 243 242 244 243 246 246 252 241 243 251 263 273 274 270 265 265 267 264 259 255 256 258 268
28 24 18 357 355 342 306 281 256 252 257 255 255 257 252 250 246 252 253 249 247 248 246 240 243 244 246 241 247 251 258 270 271 267 266 267 267 264 257 254 256 257 261
28 25 22 18 9 350 327 316 281 266 254 262 264 259 257 251 245 249 252 256 254 250 241 246 244 242 242 248 254 256 258 264 270 269 266 265 264 262 259 256 254 255 260
28 25 21 18 14 12 356 324 310 295 299 262 259 265 262 257 251 245 249 253 251 252 240 240 239 240 242 252 254 256 261 262 264 268 265 264 262 259 258 257 258 257 256
23 22 21 19 14 8 6 2 316 304 294 289 273 261 275 268 255 251 249 248 248 244 246 241 240 242 244 248 254 254 258 260 259 263 265 262 259 259 255 254 253 254 253
18 17 17 13 13 10 6 1 357 351 310 306 296 287 265 274 276 263 256 252 246 246 245 244 244 242 244 247 249 250 253 256 256 258 260 263 259 254 253 249 249 249 252
17 17 16 15 13 10 7 6 2 354 348 336 311 299 288 264 269 282 268 257 251 247 245 238 239 242 244 245 243 243 248 254 252 253 253 254 256 252 248 249 248 248 251
21 18 15 14 13 12 8 3 357 353 352 338 321 298 287 287 287 276 278 266 259 251 248 245 239 240 247 244 245 236 228 238 251 247 247 248 247 249 248 246 247 248 249
21 17 15 11 9 8 7 5 6 3 357 354 342 330 317 309 279 292 271 282 261 257 251 247 246 241 243 246 242 241 238 244 235 236 243 242 244 244 244 246 247 249 250
8 8 6 5 4 3 3 4 2 1 358 352 348 340 326 318 304 282 291 274 286 272 260 252 249 244 241 245 248 243 240 238 242 243 243 241 240 244 244 241 243 244 250
358 356 356 356 357 356 356 357 359 358 355 352 350 345 340 330 324 313 292 289 272 281 274 257 253 249 247 245 247 247 245 239 236 237 238 239 243 242 242 240 242 243 246
Wind_Speed_850mb
50 52 49 47 47 41 38 37 35 35 35 30 26 24 22 20 19 17 15 20 23 26 28 24 24 25 20 24 25 30 27 23 23 23 23 24 24 24 26 27 29 30 26
54 53 51 49 47 41 37 35 35 33 29 26 23 21 19 16 14 13 14 13 16 22 31 26 27 26 25 26 29 27 24 21 20 19 21 19 18 18 19 20 24 26 22
50 51 50 48 45 39 35 35 34 29 25 24 21 17 15 13 13 13 12 11 11 14 24 26 26 28 26 27 26 23 19 18 18 18 17 14 14 12 11 14 18 21 18
31 53 50 48 44 39 35 33 32 28 25 22 18 15 11 11 12 13 12 11 12 13 20 26 28 29 28 27 25 21 18 14 12 10 12 9 7 7 6 9 11 13 12
21 51 50 46 42 37 35 33 32 28 24 21 18 13 11 10 10 10 11 11 15 19 22 27 28 26 25 24 22 19 15 10 8 8 10 3 6 8 11 11 11 9 6
15 47 48 44 40 38 34 33 31 27 24 20 16 12 11 10 13 16 18 18 20 22 22 23 22 22 22 21 21 20 18 15 11 10 7 15 12 10 14 13 10 7 3
10 40 44 38 37 36 34 33 30 26 24 21 16 12 10 12 15 16 19 21 22 22 21 21 20 19 18 17 17 18 19 18 15 14 12 13 16 16 13 11 9 8 5
9 31 37 33 32 32 31 31 29 25 23 21 16 13 11 12 14 16 18 19 20 20 20 20 20 20 20 19 16 15 15 16 13 14 15 13 13 11 9 8 6 5 5
9 6 26 28 29 28 26 29 27 25 24 21 17 14 12 13 14 16 16 16 16 16 17 18 19 19 19 17 14 11 12 13 13 11 12 10 9 9 8 6 4 3 3
6 6 6 16 26 28 29 32 31 28 27 24 20 16 15 16 17 18 17 15 15 15 15 17 19 19 17 14 11 10 12 14 14 14 14 15 9 10 8 7 5 4 3
19 16 6 3 16 32 32 30 33 31 30 30 26 21 19 18 19 21 19 18 16 16 16 16 17 17 15 12 7 8 11 14 14 9 12 13 10 14 12 12 10 9 8
10 11 14 18 25 31 34 37 32 32 31 35 31 27 24 22 22 22 22 21 20 19 19 19 20 19 17 13 8 8 10 14 18 17 18 18 17 17 17 15 14 15 16
36 8 14 16 21 34 33 39 39 39 36 36 35 33 30 28 27 29 29 28 26 25 24 23 23 23 21 19 15 13 14 17 20 22 22 22 22 21 22 21 20 21 24
39 34 16 14 20 33 43 38 41 40 39 42 41 38 37 36 35 34 34 33 31 29 28 27 27 27 25 24 21 17 18 20 23 26 25 24 25 25 26 25 25 27 28
41 39 32 20 11 28 32 40 47 50 47 47 50 47 45 44 43 40 38 37 36 35 34 33 34 32 30 29 25 22 24 22 24 28 28 29 28 29 31 29 29 30 28
57 47 41 31 24 14 21 38 43 43 54 54 52 55 52 49 49 49 47 42 40 40 36 39 41 37 33 36 33 30 30 28 25 28 32 31 30 28 28 30 30 30 29
63 60 50 36 33 26 23 24 35 43 45 55 59 58 59 56 47 51 52 52 46 43 40 40 42 41 41 39 39 36 34 35 31 30 33 33 30 29 29 31 31 31 32
66 65 60 55 41 32 28 26 32 36 39 38 43 57 60 60 59 58 57 53 49 48 46 43 45 46 46 42 44 41 39 39 38 34 34 34 32 32 30 30 33 35 36
73 70 66 62 60 53 36 30 29 30 30 37 47 43 55 61 62 67 63 60 55 51 53 56 57 55 54 44 46 47 46 45 42 40 36 36 35 34 34 34 33 32 31
73 72 70 69 65 62 55 43 32 34 31 32 40 45 46 52 67 66 70 68 62 61 55 64 62 60 63 54 55 55 52 53 48 44 42 39 38 39 36 35 34 31 30
71 73 75 74 74 71 71 68 55 43 45 41 35 38 44 39 58 70 78 75 74 73 70 64 69 69 68 64 62 61 58 59 55 49 48 46 43 40 40 38 37 34 33
68 71 74 75 75 73 71 69 66 58 48 46 45 46 40 46 45 47 70 83 82 82 81 75 76 77 77 73 72 64 47 63 65 58 56 52 50 46 44 42 40 39 36
69 70 71 73 74 75 76 69 65 61 57 50 42 50 49 49 47 46 54 71 86 92 92 90 88 88 88 78 83 69 28 39 45 56 62 60 55 53 47 47 44 43 42
65 66 67 69 72 73 76 79 78 77 76 72 63 58 58 54 54 48 65 60 84 88 96 101 98 99 91 96 88 90 87 64 34 27 44 53 55 57 55 52 49 47 45
61 68 69 67 68 70 73 75 77 78 75 73 74 67 57 56 51 55 53 54 56 85 89 98 106 106 108 101 107 96 96 100 85 66 51 48 54 52 57 54 52 50 49
60 68 73 75 71 68 70 72 73 75 77 80 80 79 76 67 63 57 55 51 57 61 67 96 94 109 112 111 106 118 100 107 99 88 72 57 51 52 54 52 53 53 52
Wind_Direction_850mb
173 171 165 165 163 161 158 153 149 146 142 141 139 138 136 135 135 135 125 123 129 142 127 130 134 139 141 131 124 128 127 121 106 93 81 76 76 73 69 65 58 53 58
170 175 167 166 164 163 157 151 150 147 144 142 140 139 139 142 144 148 145 144 135 147 150 133 131 135 135 136 139 138 134 124 108 96 81 65 57 63 65 62 50 49 58
172 174 170 169 168 166 158 155 154 151 149 148 147 147 148 154 164 167 170 169 160 157 153 135 135 143 140 142 144 144 136 125 113 105 87 60 47 32 47 54 46 43 51
175 178 176 173 173 168 165 163 162 160 159 158 155 152 156 166 169 172 179 181 181 158 148 154 149 146 146 148 149 145 142 139 141 116 90 49 31 355 9 14 22 30 50
184 184 180 177 177 173 172 170 170 169 168 165 160 154 150 152 149 149 155 156 147 145 145 144 152 157 159 159 160 158 162 177 176 162 152 90 302 290 329 325 339 358 46
189 186 185 183 181 179 178 177 176 175 174 170 163 152 142 138 133 130 126 128 132 135 138 144 151 157 162 168 171 174 181 193 204 228 202 182 231 270 292 300 314 323 342
174 189 190 185 185 185 184 183 183 183 182 177 171 160 144 140 136 132 126 127 127 127 132 138 145 151 156 162 169 178 189 210 227 243 251 242 250 274 281 285 294 291 278
8 194 193 186 190 190 191 192 192 191 190 186 181 172 161 149 148 142 142 140 136 133 131 132 134 134 133 136 143 160 185 212 237 254 265 266 274 276 267 276 289 299 289
35 134 202 196 197 201 203 202 203 202 201 197 194 188 181 172 167 165 159 153 148 147 145 146 144 140 137 137 143 160 185 206 226 247 257 265 275 285 261 250 254 276 298
129 102 90 214 215 210 213 212 210 213 212 207 207 203 198 188 183 181 178 172 168 167 160 156 154 150 148 149 155 179 209 234 241 255 253 256 275 263 273 256 256 270 278
160 171 210 298 254 226 218 221 222 217 216 211 211 215 209 206 202 198 194 191 191 190 185 179 177 175 173 169 172 190 221 245 255 257 261 266 242 260 266 260 247 233 235
83 134 196 226 273 243 226 234 229 232 223 216 217 221 221 217 217 213 211 208 208 207 202 201 201 206 206 214 230 241 261 265 261 252 256 265 260 257 256 256 257 256 257
27 20 237 254 249 240 234 245 235 233 230 227 225 227 226 225 222 222 225 224 222 221 219 217 220 223 223 229 241 263 280 283 271 264 259 263 265 259 254 253 254 261 272
24 27 15 252 250 234 233 247 245 242 241 239 236 238 234 232 229 231 233 236 235 233 231 231 233 236 237 239 244 261 279 288 278 265 265 266 270 266 259 256 255 260 266
23 16 15 4 268 242 257 243 249 245 245 251 244 239 239 238 238 238 239 240 241 239 238 237 240 243 243 245 246 257 269 277 279 270 263 267 268 266 262 261 260 262 264
24 19 9 6 349 329 258 247 253 249 251 250 251 252 252 243 242 242 244 243 243 242 244 243 246 246 252 241 243 251 263 273 274 270 265 265 267 264 259 255 256 258 268
28 24 18 357 355 342 306 281 256 252 257 255 255 257 252 250 246 252 253 249 247 248 246 240 243 244 246 241 247 251 258 270 271 267 266 267 267 264 257 254 256 257 261
28 25 22 18 9 350 327 316 281 266 254 262 264 259 257 251 245 249 252 256 254 250 241 246 244 242 242 248 254 256 258 264 270 269 266 265 264 262 259 256 254 255 260
28 25 21 18 14 12 356 324 310 295 299 262 259 265 262 257 251 245 249 253 251 252 240 240 239 240 242 252 254 256 261 262 264 268 265 264 262 259 258 257 258 257 256
23 22 21 19 14 8 6 2 316 304 294 289 273 261 275 268 255 251 249 248 248 244 246 241 240 242 244 248 254 254 258 260 259 263 265 262 259 259 255 254 253 254 253
18 17 17 13 13 10 6 1 357 351 310 306 296 287 265 274 276 263 256 252 246 246 245 244 244 242 244 247 249 250 253 256 256 258 260 263 259 254 253 249 249 249 252
17 17 16 15 13 10 7 6 2 354 348 336 311 299 288 264 269 282 268 257 251 247 245 238 239 242 244 245 243 243 248 254 252 253 253 254 256 252 248 249 248 248 251
21 18 15 14 13 12 8 3 357 353 352 338 321 298 287 287 287 276 278 266 259 251 248 245 239 240 247 244 245 236 228 238 251 247 247 248 247 249 248 246 247 248 249
21 17 15 11 9 8 7 5 6 3 357 354 342 330 317 309 279 292 271 282 261 257 251 247 246 241 243 246 242 241 238 244 235 236 243 242 244 244 244 246 247 249 250
8 8 6 5 4 3 3 4 2 1 358 352 348 340 326 318 304 282 291 274 286 272 260 252 249 244 241 245 248 243 240 238 242 243 243 241 240 244 244 241 243 244 250
358 356 356 356 357 356 356 357 359 358 355 352 350 345 340 330 324 313 292 289 272 281 274 257 253 249 247 245 247 247 245 239 236 237 238 239 243 242 242 240 242 243 246